Location: Dealu Mare
(46.0500°N, 22.8167°E)
Time: 22:21:28
(UTC+00:00)

Cosmos 1833 Rocket - Pass Details

Date: 15 January 2026
Orbit: 831 x 839 km, 71.0° (Epoch: 11 February)

Event Time Altitude Azimuth Distance (km) Brightness Sun altitude
Exits shadow 05:09:21 12° 279° (W) 2,318 4.3 -9.9°
Maximum altitude 05:10:45 13° 264° (W) 2,244 4.4 -9.6°
Drops below altitude 10° 05:13:09 10° 238° (WSW) 2,442 4.8 -9.2°
Sets 05:17:00 0° 212° (SSW) 3,368 5.7 -8.6°
